Overview Statistics Trail Chart Weather Telemetry Raw packets
 

This is the latest recevied weather packets stored in our database for station/object KE5QKR. If no packets are shown the sender has not sent any weather packets the latest 10 day(s).

<< 87 88 89 90 91 92 93 >>
Time Temp. Humidity Pressure Rain* Wind** Luminosity Snow
1777320571 29.44° C 60% 1013.5 hPa 0 mm - 588 W/m² -
1777320269 29.44° C 63% 1013.6 hPa 0 mm - 287 W/m² -
1777319965 29.44° C 59% 1013.6 hPa 0 mm - 348 W/m² -
1777319662 30° C 61% 1013.7 hPa 0 mm - 686 W/m² -
1777319359 30° C 59% 1013.6 hPa 0 mm - 619 W/m² -
1777319056 29.44° C 61% 1013.7 hPa 0 mm - 465 W/m² -
1777318753 30° C 58% 1013.5 hPa 0 mm - 307 W/m² -
1777318448 30° C 61% 1013.6 hPa 0 mm - 494 W/m² -
1777318146 30° C 57% 1013.8 hPa 0 mm - 698 W/m² -
1777317843 30° C 58% 1013.6 hPa 0 mm - 660 W/m² -
1777317540 30° C 57% 1013.8 hPa 0 mm - 572 W/m² -
1777317237 30.56° C 58% 1013.9 hPa 0 mm - 611 W/m² -
1777316932 30° C 58% 1013.9 hPa 0 mm - 586 W/m² -
1777316630 30.56° C 58% 1013.8 hPa 0 mm - 728 W/m² -
1777316326 30.56° C 60% 1013.8 hPa 0 mm - 738 W/m² -
1777316023 30.56° C 59% 1013.8 hPa 0 mm - 728 W/m² -
1777315723 30.56° C 61% 1014.2 hPa 0 mm - 642 W/m² -
1777315419 30° C 57% 1013.8 hPa 0 mm - 758 W/m² -
1777315117 30° C 61% 1013.8 hPa 0 mm - 786 W/m² -
1777314812 30.56° C 60% 1013.9 hPa 0 mm - 758 W/m² -
1777314510 30° C 60% 1013.8 hPa 0 mm - 764 W/m² -
1777314206 30.56° C 59% 1013.8 hPa 0 mm - 768 W/m² -
1777313905 30° C 61% 1013.7 hPa 0 mm - 783 W/m² -
1777313601 30.56° C 62% 1013.7 hPa 0 mm - 791 W/m² -
1777313300 30° C 62% 1013.9 hPa 0 mm - 785 W/m² -

* Rain latest hour (hover to see other rain measurements)
** Current wind speed in m/s (hover to see current wind gust speed)